Погода Черновцы

Погода Черновцы : погода сейчас, прогноз погоды и архив. Всё, что Вы хотите узнать о погоде Черновцы!

Поиск расширенной информации на нашем сайте:

Другие новости

Новости СМИ2

Главная страница сайта

Новости сайта

03.07.2017

Напоминаем, что на нашем специализированном сайте Метеоцентр.Азия вы можете получить высокодетализированные автоматические прогнозы погоды по пунктам России, СНГ и мира в авиационном формате (включающие направление и скорость ветра, видимость, явления погоды, количество и форму облачности, нижнюю и верхнюю границу облачности).


Погода Черновцы - сегодня

Время (UTC), дата Ветер
(°,м/с) 
Видим.   Явления Облачность Т
(°С)
Тd
(°С)
f(%) Тe
(°С)
Pmin
(гПа)
dP
(гПа)
Po
(мм)
O2
(г/м3)
Тmin Tmax R s Состояние
почвы
21 17.08.17 310 (СЗ) 13000 м    4/0 средняя 
[Ac trans]
+20.6 +14.9 70 +29  1018.9  0.1  743  275           
00 18.08.17 320 (СЗ) 24000 м    ясно 
+19.3 +14.1 72 +27  1019  743  277           
03 18.08.17 310 (СЗ) 18000 м    ясно 
+16.1 +14.5 90 +24  1019.1  -0.2  743  280           
06 18.08.17 330 (СЗ) 40000 м    ясно 
+19.6 +14.5 72 +29  1019.7  0.9  743  276  +15.8         
09 18.08.17 090 (В) 35000 м    ясно 
+27.8 +12.2 38 +32  1018.7  -0.2  743  270           
12 18.08.17 120 (ЮВ) 50000 м    3/3 1500 м 
[Cu hum]
+32.2 +9.1 24 +32  1017.2  -1.1  742  266           
15 18.08.17 120 (ЮВ) 45000 м    6/3 1500 м верхняя 
[Cu hum|Ci fib]
+31 +10.1 27 +33  1016.5  -0.8  742  267           
18 18.08.17 210 (ЮЗ) 17000 м    3/0 верхняя 
[Ci fib]
+25.3 +12.1 44 +30  1017.4  0.4  742  271           
21 18.08.17 тихо ()   21000 м    ясно 
+21.2 +13 59 +27  1017.9  0.1  742  275           
00 19.08.17 тихо ()   23000 м    ясно 
+19 +13.4 70 +25  1017.6  -0.5  742  277           
03 19.08.17 тихо ()   40000 м    ясно 
+17.3 +13.2 77 +23  1018.1  0.3  742  279           
06 19.08.17 тихо ()   40000 м    ясно 
+20.7 +13.8 65 +28  1018.2  0.4  742  275  +15.7         
09 19.08.17 100 (В) 35000 м    ясно 
+29.2 +13.3 38 +35  1016.8  -0.5  742  267           
12 19.08.17 130 (ЮВ) 50000 м    3/3 1500 м 
[Cu hum]
+33.2 +5.9 18 +33  1015.6  -0.9  741  265           
15 19.08.17 120 (ЮВ) 50000 м    ясно 
+32 +3 16 +32  1014.7  -1  740  267           
18 19.08.17 140 (ЮВ) 25000 м    ясно 
+25.1 +7.2 32 +25  1015.7  0.4  741  272    +33.2       
21 19.08.17 130 (ЮВ) 20000 м    ясно 
+21 +8.1 43 +21  1016.4  0.3  741  276           
00 20.08.17 100 (В) 30000 м    ясно 
+19.2 +9.5 53 +22  1016.1  -0.5  741  277           
03 20.08.17 290 (З) 50000 м    3/0 средняя 
[Ac trans]
+19.7 +16.7 83 +32  1016.9  0.9  741  275           
06 20.08.17 340 (С) 50000 м    3/0 средняя 
[Ac trans]
+20.4 +16.1 76 +31  1017.1  0.3  742  275  +18.5         
09 20.08.17 100 (В) 50000 м    ясно 
+27.1 +16.2 51 +38  1015.3  -1.2  741  268           
12 20.08.17 140 (ЮВ) 50000 м    4/4 1500 м 
[Cu hum]
+32.3 +2.6 15 +32  1013.1  -1.8  739  266           
15 20.08.17 150 (ЮВ) 50000 м    ясно 
+31.6 +5 19 +32  1011.8  -1.3  738  266           
18 20.08.17 160 (Ю) 20000 м    3/0 средняя 
[Ac trans]
+25.9 +7.4 31 +26  1012.6  0.3  739  271           
21 20.08.17 320 (СЗ) 35000 м    4/0 средняя 
[Ac trans]
+22 +14.6 63 +30  1014.8  1.9  740  273           
Время (UTC), дата Ветер
(°,м/с) 
Видим.   Явления Облачность Т
(°С)
Тd
(°С)
f(%) Тe
(°С)
Pmin
(гПа)
dP
(гПа)
Po
(мм)
O2
(г/м3)
Тmin Tmax R s Состояние
почвы

Для получения пояснительной информации подведите курсор к названию столбца.

ПОГОДА Черновцы - архив

Всё, что Вы хотите узнать о погоде Черновцы - удобно и подробно!

Выберите нужную дату (начиная с 1 января 2015* года) и нажмите кнопку "Найти".
Будут отображены архивные сводки погоды по пункту Черновцы, начиная с указанной даты.


Отображать данные в формате CSV (для использования в таблицах Excel)


Внимание! Наш архив погоды предназначен исключительно для личного некоммерческого использования в познавательных целях. Если Вам необходимы официальные справки о состоянии погоды (для производственных, юридических, коммерческих и т.п. целей), обращайтесь в органы Росгидромета.

*Примечание: данная дата относится к архиву по метеостанциям СССР (Россия, СНГ, Балтия).
Архив по метеостанциям Зарубежной Европы и Азии (кроме Китая) хранится 10 дней, по другим регионам земного шара (Китай, Африка, Америка, Австралия, Океания) - 1 день.

Черновцы - район местоположения метеостанции


Название, широта, долгота, высота метеостанции:
Черновцы 48.4°ш. 25.9°д. 246 м над ур. моря [Украина]

Дополнительная информация

В oтличие oт бoльшинства пoгoдных сайтoв мы публикуем пoдрoбную метеoинфoрмацию в детальнoм прoфессиoнальнoм фoрмате.

Характеристики температуры и влажнoсти вoздуха измеряются на высoте 2 м в тени вдали oт зданий и деревьев.
Скoрoсть ветра измеряется на высoте 10 м (на урoвне рoста челoвека скoрoсть ветра ниже в 1.5-2 раза). Если метеoстанция нахoдится в гoрoде или в лесу, тo скoрoсть ветра занижена на 2-4 м/с пo сравнению с oткрытым местoм. Скoрoсть ветра над акватoриями крупных рек и oзёр, а также на вершинах хoлмoв на 2-5 м/с выше, чем в oбычных услoвиях.
Атмoсфернoе давление в разных тoчках местнoсти мoжет значительнo oтличаться oт давления на метеoстанции, в зависимoсти oт услoвий рельефа (при пoдъёме на 10 м давление пoнижается примернo на 1 мм рт.ст.).